Location: Pedholt
(56.0260°N, 10.2097°E)
Time: 07:04:17
(UTC+00:00)

Vanguard 3 - Pass Details

Date: 03 August 2021
Orbit: 510 x 3260 km, 33.4° (Epoch: 26 September)

Event Time Altitude Azimuth Distance (km) Brightness Sun altitude
Rises 22:09:55 0° 268° (W) 6,856 12.1 -15.0°
Reaches altitude 10° 22:16:18 10° 254° (WSW) 6,081 11.6 -15.3°
Maximum altitude 22:27:52 20° 217° (SW) 5,382 10.9 -15.7°
Enters shadow 22:35:57 14° 189° (S) 5,601 10.8 -16.0°
